Time,TemperatureF,DewpointF,PressureIn,WindDirection,WindDirectionDegrees,WindSpeedMPH,WindSpeedGustMPH,Humidity,HourlyPrecipIn,Conditions,Clouds,dailyrainin,SoftwareType,DateUTC
2013-07-14 00:03:00,58.3,47.6,30.13,NE,45,0.0,1.5,67,0.00,,,0.00,NetBSD+Arduino,2013-07-14 07:03:00,
2013-07-14 00:08:00,58.2,47.6,30.13,SW,225,0.0,0.0,67,0.00,,,0.00,NetBSD+Arduino,2013-07-14 07:08:00,
2013-07-14 00:13:00,58.0,48.0,30.13,NE,45,1.8,3.0,69,0.00,,,0.00,NetBSD+Arduino,2013-07-14 07:13:00,
2013-07-14 00:18:00,57.8,48.0,30.13,ESE,102,0.0,3.0,69,0.00,,,0.00,NetBSD+Arduino,2013-07-14 07:18:00,
2013-07-14 00:23:00,57.6,48.3,30.12,West,270,0.0,0.0,71,0.00,,,0.00,NetBSD+Arduino,2013-07-14 07:23:00,
2013-07-14 00:28:00,57.3,48.3,30.13,West,270,0.0,0.0,71,0.00,,,0.00,NetBSD+Arduino,2013-07-14 07:28:00,
2013-07-14 00:33:00,57.2,48.3,30.13,West,270,0.0,0.0,72,0.00,,,0.00,NetBSD+Arduino,2013-07-14 07:33:00,
2013-07-14 00:38:00,56.9,48.4,30.13,West,270,0.0,0.0,73,0.00,,,0.00,NetBSD+Arduino,2013-07-14 07:38:00,
2013-07-14 00:43:00,56.9,48.4,30.13,NE,45,0.0,0.0,73,0.00,,,0.00,NetBSD+Arduino,2013-07-14 07:43:00,
2013-07-14 00:48:00,56.7,48.4,30.13,NE,45,0.0,0.0,73,0.00,,,0.00,NetBSD+Arduino,2013-07-14 07:48:00,
2013-07-14 00:53:00,56.7,48.6,30.13,East,90,0.0,0.0,74,0.00,,,0.00,NetBSD+Arduino,2013-07-14 07:53:00,
2013-07-14 00:58:00,56.6,48.6,30.13,NE,45,0.0,3.0,74,0.00,,,0.00,NetBSD+Arduino,2013-07-14 07:58:00,
2013-07-14 01:03:00,56.4,48.9,30.13,NE,45,0.0,1.5,75,0.00,,,0.00,NetBSD+Arduino,2013-07-14 08:03:00,
2013-07-14 01:08:00,56.2,48.6,30.13,NE,45,0.0,1.5,75,0.00,,,0.00,NetBSD+Arduino,2013-07-14 08:08:00,
2013-07-14 01:14:00,55.9,48.7,30.13,West,270,0.0,0.0,76,0.00,,,0.00,NetBSD+Arduino,2013-07-14 08:14:00,
2013-07-14 01:19:00,55.7,48.7,30.13,West,270,0.0,1.5,77,0.00,,,0.00,NetBSD+Arduino,2013-07-14 08:19:00,
2013-07-14 01:24:00,55.6,48.7,30.13,East,90,0.0,0.0,77,0.00,,,0.00,NetBSD+Arduino,2013-07-14 08:24:00,
2013-07-14 01:29:00,55.5,48.6,30.13,NE,45,0.0,0.0,77,0.00,,,0.00,NetBSD+Arduino,2013-07-14 08:29:00,
2013-07-14 01:34:00,55.4,48.8,30.13,East,90,0.0,3.0,78,0.00,,,0.00,NetBSD+Arduino,2013-07-14 08:34:00,
2013-07-14 01:40:00,55.2,48.5,30.13,South,180,0.3,1.5,78,0.00,,,0.00,NetBSD+Arduino,2013-07-14 08:40:00,
2013-07-14 01:45:00,55.3,48.4,30.13,NE,45,0.4,3.0,77,0.00,,,0.00,NetBSD+Arduino,2013-07-14 08:45:00,
2013-07-14 01:50:00,55.3,48.4,30.13,NW,315,0.0,0.0,77,0.00,,,0.00,NetBSD+Arduino,2013-07-14 08:50:00,
2013-07-14 01:55:00,55.3,48.7,30.13,NE,45,1.9,4.5,78,0.00,,,0.00,NetBSD+Arduino,2013-07-14 08:55:00,
2013-07-14 02:00:00,55.3,48.7,30.13,NE,45,0.0,4.5,78,0.00,,,0.00,NetBSD+Arduino,2013-07-14 09:00:00,
2013-07-14 02:05:00,55.2,48.8,30.13,East,90,0.6,3.0,79,0.00,,,0.00,NetBSD+Arduino,2013-07-14 09:05:00,
2013-07-14 02:10:00,54.9,48.6,30.13,NW,315,0.0,1.5,79,0.00,,,0.00,NetBSD+Arduino,2013-07-14 09:10:00,
2013-07-14 02:16:00,54.7,48.7,30.13,South,180,0.0,0.0,80,0.00,,,0.00,NetBSD+Arduino,2013-07-14 09:16:00,
2013-07-14 02:21:00,54.4,48.7,30.13,South,180,0.0,0.0,80,0.00,,,0.00,NetBSD+Arduino,2013-07-14 09:21:00,
2013-07-14 02:26:00,54.3,48.5,30.13,South,180,0.0,0.0,80,0.00,,,0.00,NetBSD+Arduino,2013-07-14 09:26:00,
2013-07-14 02:31:00,54.4,48.8,30.13,East,90,0.0,1.5,81,0.00,,,0.00,NetBSD+Arduino,2013-07-14 09:31:00,
2013-07-14 02:36:00,54.3,49.0,30.13,East,90,0.0,1.5,82,0.00,,,0.00,NetBSD+Arduino,2013-07-14 09:36:00,
2013-07-14 02:41:00,54.1,49.0,30.13,East,90,0.0,0.0,82,0.00,,,0.00,NetBSD+Arduino,2013-07-14 09:41:00,
2013-07-14 02:46:00,53.8,49.0,30.13,East,90,0.0,0.0,83,0.00,,,0.00,NetBSD+Arduino,2013-07-14 09:46:00,
2013-07-14 02:52:00,53.7,48.8,30.13,South,180,0.0,0.0,83,0.00,,,0.00,NetBSD+Arduino,2013-07-14 09:52:00,
2013-07-14 02:57:00,53.6,48.7,30.13,East,90,0.0,1.5,83,0.00,,,0.00,NetBSD+Arduino,2013-07-14 09:57:00,
2013-07-14 03:02:00,53.5,48.6,30.13,East,90,0.0,1.5,83,0.00,,,0.00,NetBSD+Arduino,2013-07-14 10:02:00,
2013-07-14 03:07:00,53.3,48.5,30.13,South,180,0.0,0.0,83,0.00,,,0.00,NetBSD+Arduino,2013-07-14 10:07:00,
2013-07-14 03:12:00,53.6,48.7,30.13,NW,315,0.0,0.0,83,0.00,,,0.00,NetBSD+Arduino,2013-07-14 10:12:00,
2013-07-14 03:17:00,53.6,48.7,30.13,NW,315,0.0,0.0,83,0.00,,,0.00,NetBSD+Arduino,2013-07-14 10:17:00,
2013-07-14 03:23:00,53.6,48.8,30.13,NW,315,0.3,1.5,83,0.00,,,0.00,NetBSD+Arduino,2013-07-14 10:23:00,
2013-07-14 03:29:00,53.7,48.8,30.13,North,0,1.5,3.0,83,0.00,,,0.00,NetBSD+Arduino,2013-07-14 10:29:00,
2013-07-14 03:34:00,53.8,49.2,30.13,ESE,103,0.0,3.0,84,0.00,,,0.00,NetBSD+Arduino,2013-07-14 10:34:00,
2013-07-14 03:39:00,54.0,49.4,30.13,ESE,104,0.6,1.5,84,0.00,,,0.00,NetBSD+Arduino,2013-07-14 10:39:00,
2013-07-14 03:44:00,53.8,49.4,30.13,NW,315,0.9,3.0,84,0.00,,,0.00,NetBSD+Arduino,2013-07-14 10:44:00,
2013-07-14 03:49:00,53.8,49.5,30.13,ESE,103,0.0,1.5,85,0.00,,,0.00,NetBSD+Arduino,2013-07-14 10:49:00,
2013-07-14 03:54:00,53.8,49.4,30.13,NW,315,0.6,1.5,85,0.00,,,0.00,NetBSD+Arduino,2013-07-14 10:54:00,
2013-07-14 03:59:00,53.7,49.4,30.13,ESE,102,0.0,1.5,85,0.00,,,0.00,NetBSD+Arduino,2013-07-14 10:59:00,
2013-07-14 04:04:00,53.7,49.5,30.12,NW,315,0.0,0.0,85,0.00,,,0.00,NetBSD+Arduino,2013-07-14 11:04:00,
2013-07-14 04:09:00,53.6,49.3,30.13,West,270,0.0,0.0,85,0.00,,,0.00,NetBSD+Arduino,2013-07-14 11:09:00,
2013-07-14 04:14:00,53.3,49.0,30.13,West,270,0.3,3.0,85,0.00,,,0.00,NetBSD+Arduino,2013-07-14 11:14:00,
2013-07-14 04:19:00,53.3,48.9,30.13,West,270,0.0,3.0,84,0.00,,,0.00,NetBSD+Arduino,2013-07-14 11:19:00,
2013-07-14 04:24:00,53.3,48.9,30.13,NW,315,0.9,1.5,84,0.00,,,0.00,NetBSD+Arduino,2013-07-14 11:24:00,
2013-07-14 04:29:00,53.3,48.9,30.13,West,270,0.0,1.5,84,0.00,,,0.00,NetBSD+Arduino,2013-07-14 11:29:00,
2013-07-14 04:34:00,53.3,48.8,30.13,West,270,0.0,1.5,84,0.00,,,0.00,NetBSD+Arduino,2013-07-14 11:34:00,
2013-07-14 04:39:00,53.1,48.8,30.13,NE,45,0.0,1.5,85,0.00,,,0.00,NetBSD+Arduino,2013-07-14 11:39:00,
2013-07-14 04:44:00,53.0,48.5,30.13,NW,315,0.0,0.0,84,0.00,,,0.00,NetBSD+Arduino,2013-07-14 11:44:00,
2013-07-14 04:49:00,53.0,48.6,30.12,NW,315,0.0,1.5,85,0.00,,,0.00,NetBSD+Arduino,2013-07-14 11:49:00,
2013-07-14 04:54:00,52.8,48.5,30.13,West,270,0.0,1.5,85,0.00,,,0.00,NetBSD+Arduino,2013-07-14 11:54:00,
2013-07-14 04:59:00,52.8,48.5,30.12,West,270,0.0,0.0,85,0.00,,,0.00,NetBSD+Arduino,2013-07-14 11:59:00,
2013-07-14 05:04:00,52.9,48.7,30.13,West,270,0.0,0.0,85,0.00,,,0.00,NetBSD+Arduino,2013-07-14 12:04:00,
2013-07-14 05:09:00,52.9,48.5,30.13,NE,45,0.0,1.5,85,0.00,,,0.00,NetBSD+Arduino,2013-07-14 12:09:00,
2013-07-14 05:14:00,53.0,48.6,30.13,NW,315,0.0,0.0,85,0.00,,,0.00,NetBSD+Arduino,2013-07-14 12:14:00,
2013-07-14 05:19:00,52.8,48.5,30.13,NW,315,0.9,1.5,85,0.00,,,0.00,NetBSD+Arduino,2013-07-14 12:19:00,
2013-07-14 05:24:00,53.0,48.6,30.13,West,270,0.9,3.0,85,0.00,,,0.00,NetBSD+Arduino,2013-07-14 12:24:00,
2013-07-14 05:29:00,53.0,48.3,30.13,West,270,0.0,1.5,84,0.00,,,0.00,NetBSD+Arduino,2013-07-14 12:29:00,
2013-07-14 05:34:00,52.8,48.7,30.13,West,270,0.0,0.0,85,0.00,,,0.00,NetBSD+Arduino,2013-07-14 12:34:00,
2013-07-14 05:40:00,52.7,48.6,30.13,West,270,0.0,1.5,85,0.00,,,0.00,NetBSD+Arduino,2013-07-14 12:40:00,
2013-07-14 05:45:00,52.4,48.6,30.13,West,270,0.0,0.0,86,0.00,,,0.00,NetBSD+Arduino,2013-07-14 12:45:00,
2013-07-14 05:50:00,52.3,48.7,30.13,West,270,0.0,0.0,87,0.00,,,0.00,NetBSD+Arduino,2013-07-14 12:50:00,
2013-07-14 05:55:00,52.2,48.6,30.13,West,270,0.0,0.0,87,0.00,,,0.00,NetBSD+Arduino,2013-07-14 12:55:00,
2013-07-14 06:00:00,52.3,48.8,30.13,West,270,0.0,0.0,87,0.00,,,0.00,NetBSD+Arduino,2013-07-14 13:00:00,
2013-07-14 06:05:00,52.3,48.7,30.13,West,270,0.0,0.0,87,0.00,,,0.00,NetBSD+Arduino,2013-07-14 13:05:00,
2013-07-14 06:10:00,52.6,49.0,30.13,West,270,0.0,0.0,87,0.00,,,0.00,NetBSD+Arduino,2013-07-14 13:10:00,
2013-07-14 06:15:00,52.7,49.1,30.13,West,270,0.4,1.5,87,0.00,,,0.00,NetBSD+Arduino,2013-07-14 13:15:00,
2013-07-14 06:20:00,52.8,49.0,30.13,West,270,0.0,0.0,86,0.00,,,0.00,NetBSD+Arduino,2013-07-14 13:20:00,
2013-07-14 06:25:00,53.0,48.9,30.13,West,270,0.0,0.0,85,0.00,,,0.00,NetBSD+Arduino,2013-07-14 13:25:00,
2013-07-14 06:30:00,53.1,49.0,30.13,West,270,0.0,0.0,85,0.00,,,0.00,NetBSD+Arduino,2013-07-14 13:30:00,
2013-07-14 06:35:00,53.4,49.2,30.13,West,270,0.0,0.0,85,0.00,,,0.00,NetBSD+Arduino,2013-07-14 13:35:00,
2013-07-14 06:40:00,53.6,49.4,30.13,West,270,0.0,0.0,85,0.00,,,0.00,NetBSD+Arduino,2013-07-14 13:40:00,
2013-07-14 06:45:00,54.1,49.5,30.13,West,270,0.0,0.0,84,0.00,,,0.00,NetBSD+Arduino,2013-07-14 13:45:00,
2013-07-14 06:50:00,54.5,49.9,30.13,West,270,0.0,0.0,84,0.00,,,0.00,NetBSD+Arduino,2013-07-14 13:50:00,
2013-07-14 06:55:00,54.7,49.4,30.13,West,270,0.0,0.0,82,0.00,,,0.00,NetBSD+Arduino,2013-07-14 13:55:00,
2013-07-14 07:00:00,55.3,49.6,30.13,West,270,0.0,0.0,81,0.00,,,0.00,NetBSD+Arduino,2013-07-14 14:00:00,
2013-07-14 07:06:00,55.9,50.2,30.13,West,270,0.0,0.0,81,0.00,,,0.00,NetBSD+Arduino,2013-07-14 14:06:00,
2013-07-14 07:11:00,56.4,49.8,30.13,West,270,0.0,0.0,78,0.00,,,0.00,NetBSD+Arduino,2013-07-14 14:11:00,
2013-07-14 07:16:00,57.5,50.3,30.14,NE,45,0.9,1.5,76,0.00,,,0.00,NetBSD+Arduino,2013-07-14 14:16:00,
2013-07-14 07:21:00,58.0,50.0,30.14,NE,45,2.4,3.0,74,0.00,,,0.00,NetBSD+Arduino,2013-07-14 14:21:00,
2013-07-14 07:26:00,58.2,49.6,30.14,East,90,0.3,3.0,72,0.00,,,0.00,NetBSD+Arduino,2013-07-14 14:26:00,
2013-07-14 07:31:00,58.9,49.9,30.14,NE,45,1.5,3.0,72,0.00,,,0.00,NetBSD+Arduino,2013-07-14 14:31:00,
2013-07-14 07:37:00,59.3,49.8,30.14,NE,45,0.6,6.0,70,0.00,,,0.00,NetBSD+Arduino,2013-07-14 14:37:00,
2013-07-14 07:42:00,59.8,50.1,30.14,East,90,3.7,6.0,70,0.00,,,0.00,NetBSD+Arduino,2013-07-14 14:42:00,
2013-07-14 07:47:00,59.8,49.7,30.14,NE,45,3.0,6.0,69,0.00,,,0.00,NetBSD+Arduino,2013-07-14 14:47:00,
2013-07-14 07:52:00,60.1,49.7,30.13,NE,45,0.6,4.5,68,0.00,,,0.00,NetBSD+Arduino,2013-07-14 14:52:00,
2013-07-14 07:57:00,60.4,49.8,30.14,West,270,0.0,4.5,68,0.00,,,0.00,NetBSD+Arduino,2013-07-14 14:57:00,
2013-07-14 08:02:00,60.3,50.0,30.13,South,180,0.0,3.0,69,0.00,,,0.00,NetBSD+Arduino,2013-07-14 15:02:00,
2013-07-14 08:07:00,60.9,50.3,30.14,NW,315,0.0,3.0,68,0.00,,,0.00,NetBSD+Arduino,2013-07-14 15:07:00,
2013-07-14 08:12:00,61.4,50.7,30.14,NE,45,1.1,3.0,67,0.00,,,0.00,NetBSD+Arduino,2013-07-14 15:12:00,
2013-07-14 08:17:00,61.7,50.4,30.13,ESE,103,1.2,3.0,66,0.00,,,0.00,NetBSD+Arduino,2013-07-14 15:17:00,
2013-07-14 08:22:00,62.0,50.3,30.13,NW,315,0.3,3.0,65,0.00,,,0.00,NetBSD+Arduino,2013-07-14 15:22:00,
2013-07-14 08:27:00,62.2,50.9,30.13,South,180,1.8,3.0,66,0.00,,,0.00,NetBSD+Arduino,2013-07-14 15:27:00,
2013-07-14 08:32:00,62.8,50.9,30.14,SW,225,0.0,1.5,65,0.00,,,0.00,NetBSD+Arduino,2013-07-14 15:32:00,
2013-07-14 08:37:00,63.6,50.6,30.14,West,270,0.0,1.5,62,0.00,,,0.00,NetBSD+Arduino,2013-07-14 15:37:00,
2013-07-14 08:42:00,63.9,50.6,30.14,SW,225,0.0,3.0,61,0.00,,,0.00,NetBSD+Arduino,2013-07-14 15:42:00,
2013-07-14 08:47:00,63.9,50.3,30.13,ESE,104,0.3,1.5,61,0.00,,,0.00,NetBSD+Arduino,2013-07-14 15:47:00,
2013-07-14 08:52:00,65.3,51.1,30.13,West,270,0.0,1.5,60,0.00,,,0.00,NetBSD+Arduino,2013-07-14 15:52:00,
2013-07-14 08:57:00,66.8,51.4,30.14,NE,45,2.4,4.5,57,0.00,,,0.00,NetBSD+Arduino,2013-07-14 15:57:00,
2013-07-14 09:02:00,67.9,51.5,30.13,East,90,0.3,3.0,55,0.00,,,0.00,NetBSD+Arduino,2013-07-14 16:02:00,
2013-07-14 09:07:00,68.3,51.7,30.13,NW,315,0.4,4.5,55,0.00,,,0.00,NetBSD+Arduino,2013-07-14 16:07:00,
2013-07-14 09:12:00,69.0,52.7,30.13,ESE,105,0.6,3.0,55,0.00,,,0.00,NetBSD+Arduino,2013-07-14 16:12:00,
2013-07-14 09:17:00,69.3,51.5,30.12,SW,225,1.9,4.5,53,0.00,,,0.00,NetBSD+Arduino,2013-07-14 16:17:00,
2013-07-14 09:22:00,69.3,51.4,30.13,SW,225,1.8,4.5,52,0.00,,,0.00,NetBSD+Arduino,2013-07-14 16:22:00,
2013-07-14 09:28:00,70.3,52.4,30.12,NW,315,1.2,4.5,53,0.00,,,0.00,NetBSD+Arduino,2013-07-14 16:28:00,
2013-07-14 09:33:00,71.3,52.8,30.12,NW,315,0.4,4.5,52,0.00,,,0.00,NetBSD+Arduino,2013-07-14 16:33:00,
2013-07-14 09:38:00,72.2,51.8,30.12,West,270,1.2,3.0,48,0.00,,,0.00,NetBSD+Arduino,2013-07-14 16:38:00,
2013-07-14 09:44:00,73.1,54.0,30.12,West,270,0.9,3.0,51,0.00,,,0.00,NetBSD+Arduino,2013-07-14 16:44:00,
2013-07-14 09:49:00,73.8,53.3,30.12,South,180,0.3,3.0,48,0.00,,,0.00,NetBSD+Arduino,2013-07-14 16:49:00,
2013-07-14 09:54:00,73.4,53.5,30.12,NW,315,1.9,3.0,49,0.00,,,0.00,NetBSD+Arduino,2013-07-14 16:54:00,
2013-07-14 09:59:00,73.3,53.4,30.12,NE,45,0.9,4.5,49,0.00,,,0.00,NetBSD+Arduino,2013-07-14 16:59:00,
2013-07-14 10:04:00,74.0,53.8,30.12,NW,315,2.2,4.5,49,0.00,,,0.00,NetBSD+Arduino,2013-07-14 17:04:00,
2013-07-14 10:09:00,73.6,54.0,30.12,West,270,2.6,4.5,50,0.00,,,0.00,NetBSD+Arduino,2013-07-14 17:09:00,
2013-07-14 10:14:00,74.0,54.4,30.12,NW,315,2.1,3.0,50,0.00,,,0.00,NetBSD+Arduino,2013-07-14 17:14:00,
2013-07-14 10:19:00,75.0,54.8,30.12,NW,315,0.7,4.5,49,0.00,,,0.00,NetBSD+Arduino,2013-07-14 17:19:00,
2013-07-14 10:24:00,73.2,54.1,30.12,West,270,2.4,4.5,51,0.00,,,0.00,NetBSD+Arduino,2013-07-14 17:24:00,
2013-07-14 10:29:00,74.2,54.6,30.11,West,270,0.6,3.0,50,0.00,,,0.00,NetBSD+Arduino,2013-07-14 17:29:00,
2013-07-14 10:34:00,75.8,54.7,30.11,NW,315,1.8,3.0,47,0.00,,,0.00,NetBSD+Arduino,2013-07-14 17:34:00,
2013-07-14 10:39:00,76.0,53.9,30.10,SW,225,2.4,4.5,46,0.00,,,0.00,NetBSD+Arduino,2013-07-14 17:39:00,
2013-07-14 10:44:00,75.7,53.6,30.10,NW,315,0.6,4.5,46,0.00,,,0.00,NetBSD+Arduino,2013-07-14 17:44:00,
2013-07-14 10:49:00,75.7,53.0,30.11,South,180,0.9,4.5,45,0.00,,,0.00,NetBSD+Arduino,2013-07-14 17:49:00,
2013-07-14 10:54:00,76.8,54.0,30.10,West,270,2.1,9.0,45,0.00,,,0.00,NetBSD+Arduino,2013-07-14 17:54:00,
2013-07-14 10:59:00,77.4,53.4,30.10,NW,315,0.0,3.0,43,0.00,,,0.00,NetBSD+Arduino,2013-07-14 17:59:00,
2013-07-14 11:04:00,77.5,53.5,30.10,West,270,1.2,4.5,43,0.00,,,0.00,NetBSD+Arduino,2013-07-14 18:04:00,
2013-07-14 11:09:00,76.7,52.0,30.10,NW,315,1.8,4.5,42,0.00,,,0.00,NetBSD+Arduino,2013-07-14 18:09:00,
2013-07-14 11:14:00,76.3,51.7,30.10,West,270,3.6,4.5,42,0.00,,,0.00,NetBSD+Arduino,2013-07-14 18:14:00,
2013-07-14 11:20:00,76.5,53.2,30.10,SW,225,3.3,4.5,44,0.00,,,0.00,NetBSD+Arduino,2013-07-14 18:20:00,
2013-07-14 11:25:00,76.8,51.8,30.10,West,270,2.1,4.5,41,0.00,,,0.00,NetBSD+Arduino,2013-07-14 18:25:00,
2013-07-14 11:30:00,77.8,53.8,30.10,NW,315,2.1,4.5,43,0.00,,,0.00,NetBSD+Arduino,2013-07-14 18:30:00,
2013-07-14 11:35:00,78.3,52.5,30.10,West,270,2.4,4.5,40,0.00,,,0.00,NetBSD+Arduino,2013-07-14 18:35:00,
2013-07-14 11:40:00,78.1,52.0,30.10,South,180,0.9,4.5,40,0.00,,,0.00,NetBSD+Arduino,2013-07-14 18:40:00,
2013-07-14 11:45:00,78.4,52.6,30.10,NW,315,1.5,4.5,40,0.00,,,0.00,NetBSD+Arduino,2013-07-14 18:45:00,
2013-07-14 11:50:00,79.5,53.3,30.10,NE,45,0.3,4.5,40,0.00,,,0.00,NetBSD+Arduino,2013-07-14 18:50:00,
2013-07-14 11:55:00,78.6,52.4,30.10,SW,225,0.9,4.5,40,0.00,,,0.00,NetBSD+Arduino,2013-07-14 18:55:00,
2013-07-14 12:00:00,79.6,54.1,30.10,NW,315,1.5,4.5,41,0.00,,,0.00,NetBSD+Arduino,2013-07-14 19:00:00,
2013-07-14 12:05:00,79.6,52.7,30.10,NW,315,1.8,4.5,39,0.00,,,0.00,NetBSD+Arduino,2013-07-14 19:05:00,
2013-07-14 12:10:00,79.8,52.5,30.10,NW,315,2.4,4.5,38,0.00,,,0.00,NetBSD+Arduino,2013-07-14 19:10:00,
2013-07-14 12:15:00,79.8,53.2,30.09,NE,45,0.3,6.0,39,0.00,,,0.00,NetBSD+Arduino,2013-07-14 19:15:00,
2013-07-14 12:20:00,80.9,53.2,30.09,West,270,1.5,4.5,38,0.00,,,0.00,NetBSD+Arduino,2013-07-14 19:20:00,
2013-07-14 12:25:00,80.3,52.6,30.09,SW,225,2.1,4.5,38,0.00,,,0.00,NetBSD+Arduino,2013-07-14 19:25:00,
2013-07-14 12:30:00,80.6,53.7,30.09,NW,315,1.5,4.5,39,0.00,,,0.00,NetBSD+Arduino,2013-07-14 19:30:00,
2013-07-14 12:35:00,80.1,52.0,30.09,West,270,3.0,4.5,37,0.00,,,0.00,NetBSD+Arduino,2013-07-14 19:35:00,
2013-07-14 12:41:00,80.1,52.4,30.09,NW,315,0.6,4.5,38,0.00,,,0.00,NetBSD+Arduino,2013-07-14 19:41:00,
2013-07-14 12:46:00,80.0,53.4,30.09,SW,225,2.7,6.0,39,0.00,,,0.00,NetBSD+Arduino,2013-07-14 19:46:00,
2013-07-14 12:51:00,80.3,53.3,30.09,West,270,1.8,4.5,39,0.00,,,0.00,NetBSD+Arduino,2013-07-14 19:51:00,
2013-07-14 12:56:00,81.1,53.4,30.09,SW,225,1.2,6.0,38,0.00,,,0.00,NetBSD+Arduino,2013-07-14 19:56:00,
2013-07-14 13:01:00,80.5,52.8,30.09,West,270,3.6,4.5,38,0.00,,,0.00,NetBSD+Arduino,2013-07-14 20:01:00,
2013-07-14 13:06:00,80.8,53.1,30.09,South,180,0.9,4.5,38,0.00,,,0.00,NetBSD+Arduino,2013-07-14 20:06:00,
2013-07-14 13:11:00,81.1,52.5,30.09,SW,225,1.2,4.5,37,0.00,,,0.00,NetBSD+Arduino,2013-07-14 20:11:00,
2013-07-14 13:16:00,80.7,53.3,30.08,West,270,2.1,4.5,38,0.00,,,0.00,NetBSD+Arduino,2013-07-14 20:16:00,
2013-07-14 13:21:00,81.4,52.8,30.08,South,180,2.4,4.5,37,0.00,,,0.00,NetBSD+Arduino,2013-07-14 20:21:00,
2013-07-14 13:26:00,80.8,50.7,30.07,South,180,0.0,4.5,35,0.00,,,0.00,NetBSD+Arduino,2013-07-14 20:26:00,
2013-07-14 13:31:00,81.4,53.3,30.07,West,270,2.7,6.0,37,0.00,,,0.00,NetBSD+Arduino,2013-07-14 20:31:00,
2013-07-14 13:36:00,81.0,51.7,30.07,SW,225,1.8,6.0,36,0.00,,,0.00,NetBSD+Arduino,2013-07-14 20:36:00,
2013-07-14 13:41:00,81.9,54.1,30.07,NE,45,0.9,4.5,38,0.00,,,0.00,NetBSD+Arduino,2013-07-14 20:41:00,
2013-07-14 13:46:00,81.7,51.5,30.07,West,270,1.9,4.5,35,0.00,,,0.00,NetBSD+Arduino,2013-07-14 20:46:00,
2013-07-14 13:51:00,81.9,50.8,30.07,NW,315,0.4,4.5,34,0.00,,,0.00,NetBSD+Arduino,2013-07-14 20:51:00,
2013-07-14 13:56:00,81.8,50.3,30.07,West,270,0.9,3.0,33,0.00,,,0.00,NetBSD+Arduino,2013-07-14 20:56:00,
2013-07-14 14:01:00,82.4,55.3,30.07,South,180,1.2,4.5,39,0.00,,,0.00,NetBSD+Arduino,2013-07-14 21:01:00,
2013-07-14 14:07:00,81.9,51.7,30.06,West,270,0.9,4.5,35,0.00,,,0.00,NetBSD+Arduino,2013-07-14 21:07:00,
2013-07-14 14:12:00,81.8,50.8,30.06,South,180,1.2,4.5,34,0.00,,,0.00,NetBSD+Arduino,2013-07-14 21:12:00,
2013-07-14 14:17:00,82.2,51.1,30.06,South,180,1.5,4.5,34,0.00,,,0.00,NetBSD+Arduino,2013-07-14 21:17:00,
2013-07-14 14:22:00,81.5,49.6,30.06,ESE,104,1.2,4.5,33,0.00,,,0.00,NetBSD+Arduino,2013-07-14 21:22:00,
2013-07-14 14:27:00,81.4,50.4,30.06,South,180,1.2,4.5,34,0.00,,,0.00,NetBSD+Arduino,2013-07-14 21:27:00,
2013-07-14 14:32:00,81.1,49.2,30.06,SW,225,4.1,4.5,32,0.00,,,0.00,NetBSD+Arduino,2013-07-14 21:32:00,
2013-07-14 14:37:00,81.4,49.6,30.05,NW,315,3.0,4.5,33,0.00,,,0.00,NetBSD+Arduino,2013-07-14 21:37:00,
2013-07-14 14:42:00,81.7,49.8,30.06,West,270,1.8,4.5,33,0.00,,,0.00,NetBSD+Arduino,2013-07-14 21:42:00,
2013-07-14 14:47:00,81.8,50.3,30.05,South,180,0.0,4.5,33,0.00,,,0.00,NetBSD+Arduino,2013-07-14 21:47:00,
2013-07-14 14:52:00,81.8,50.3,30.05,NW,315,4.2,4.5,33,0.00,,,0.00,NetBSD+Arduino,2013-07-14 21:52:00,
2013-07-14 14:58:00,81.5,49.6,30.05,West,270,0.3,4.5,33,0.00,,,0.00,NetBSD+Arduino,2013-07-14 21:58:00,
2013-07-14 15:03:00,81.7,49.8,30.05,West,270,1.2,4.5,33,0.00,,,0.00,NetBSD+Arduino,2013-07-14 22:03:00,
2013-07-14 15:08:00,81.8,47.1,30.05,West,270,2.7,4.5,29,0.00,,,0.00,NetBSD+Arduino,2013-07-14 22:08:00,
2013-07-14 15:13:00,81.9,49.1,30.05,NW,315,2.4,4.5,31,0.00,,,0.00,NetBSD+Arduino,2013-07-14 22:13:00,
2013-07-14 15:18:00,80.6,47.4,30.05,NE,45,1.5,7.5,31,0.00,,,0.00,NetBSD+Arduino,2013-07-14 22:18:00,
2013-07-14 15:23:00,80.6,46.0,30.04,West,270,1.1,3.0,29,0.00,,,0.00,NetBSD+Arduino,2013-07-14 22:23:00,
2013-07-14 15:29:00,80.8,47.2,30.04,SW,225,0.0,6.0,30,0.00,,,0.00,NetBSD+Arduino,2013-07-14 22:29:00,
2013-07-14 15:34:00,81.2,47.5,30.04,SW,225,1.9,3.0,30,0.00,,,0.00,NetBSD+Arduino,2013-07-14 22:34:00,
2013-07-14 15:39:00,80.8,47.6,30.04,West,270,0.9,3.0,31,0.00,,,0.00,NetBSD+Arduino,2013-07-14 22:39:00,
2013-07-14 15:44:00,80.6,47.9,30.04,NW,315,0.0,4.5,31,0.00,,,0.00,NetBSD+Arduino,2013-07-14 22:44:00,
2013-07-14 15:50:00,80.2,48.4,30.03,SW,225,3.3,6.0,32,0.00,,,0.00,NetBSD+Arduino,2013-07-14 22:50:00,
2013-07-14 15:55:00,80.3,48.6,30.03,West,270,3.3,4.5,32,0.00,,,0.00,NetBSD+Arduino,2013-07-14 22:55:00,
2013-07-14 16:00:00,79.1,48.2,30.02,West,270,2.1,4.5,33,0.00,,,0.00,NetBSD+Arduino,2013-07-14 23:00:00,
2013-07-14 16:05:00,78.2,47.0,30.02,NE,45,3.3,4.5,33,0.00,,,0.00,NetBSD+Arduino,2013-07-14 23:05:00,
2013-07-14 16:11:00,77.8,45.4,30.02,East,90,2.7,6.0,31,0.00,,,0.00,NetBSD+Arduino,2013-07-14 23:11:00,
2013-07-14 16:16:00,77.8,45.3,30.02,West,270,0.0,3.0,31,0.00,,,0.00,NetBSD+Arduino,2013-07-14 23:16:00,
2013-07-14 16:21:00,77.9,47.2,30.02,West,270,0.0,3.0,33,0.00,,,0.00,NetBSD+Arduino,2013-07-14 23:21:00,
2013-07-14 16:26:00,78.0,47.3,30.02,SW,225,0.0,4.5,33,0.00,,,0.00,NetBSD+Arduino,2013-07-14 23:26:00,
2013-07-14 16:31:00,77.9,46.3,30.02,ENE,78,2.4,6.0,32,0.00,,,0.00,NetBSD+Arduino,2013-07-14 23:31:00,
2013-07-14 16:36:00,77.9,46.3,30.02,NW,315,3.7,7.5,32,0.00,,,0.00,NetBSD+Arduino,2013-07-14 23:36:00,
2013-07-14 16:41:00,77.5,45.9,30.02,ESE,105,0.6,4.5,32,0.00,,,0.00,NetBSD+Arduino,2013-07-14 23:41:00,
2013-07-14 16:46:00,77.6,45.2,30.01,NE,45,0.9,4.5,31,0.00,,,0.00,NetBSD+Arduino,2013-07-14 23:46:00,
2013-07-14 16:52:00,77.8,47.1,30.00,West,270,1.8,4.5,33,0.00,,,0.00,NetBSD+Arduino,2013-07-14 23:52:00,
2013-07-14 16:57:00,77.6,47.8,30.00,West,270,1.8,4.5,34,0.00,,,0.00,NetBSD+Arduino,2013-07-14 23:57:00,
2013-07-14 17:02:00,77.5,48.0,30.00,NW,315,1.2,4.5,35,0.00,,,0.00,NetBSD+Arduino,2013-07-15 00:02:00,
2013-07-14 17:07:00,77.0,48.4,30.00,NW,315,1.9,3.0,36,0.00,,,0.00,NetBSD+Arduino,2013-07-15 00:07:00,
2013-07-14 17:13:00,77.1,48.5,30.00,West,270,1.5,3.0,36,0.00,,,0.00,NetBSD+Arduino,2013-07-15 00:13:00,
2013-07-14 17:18:00,76.9,48.7,30.00,SW,225,0.0,6.0,37,0.00,,,0.00,NetBSD+Arduino,2013-07-15 00:18:00,
2013-07-14 17:24:00,76.5,48.0,30.00,NW,315,0.7,4.5,36,0.00,,,0.00,NetBSD+Arduino,2013-07-15 00:24:00,
2013-07-14 17:30:00,76.6,49.2,30.00,West,270,3.4,4.5,38,0.00,,,0.00,NetBSD+Arduino,2013-07-15 00:30:00,
2013-07-14 17:35:00,76.7,49.2,30.00,SW,225,2.2,4.5,38,0.00,,,0.00,NetBSD+Arduino,2013-07-15 00:35:00,
2013-07-14 17:41:00,76.7,47.7,30.00,NW,315,0.6,6.0,35,0.00,,,0.00,NetBSD+Arduino,2013-07-15 00:41:00,
2013-07-14 17:46:00,76.3,48.9,30.00,ESE,104,1.5,3.0,38,0.00,,,0.00,NetBSD+Arduino,2013-07-15 00:46:00,
2013-07-14 17:51:00,76.4,49.0,29.99,NW,315,2.7,4.5,38,0.00,,,0.00,NetBSD+Arduino,2013-07-15 00:51:00,
2013-07-14 17:57:00,76.0,47.8,29.99,ESE,103,6.3,7.5,37,0.00,,,0.00,NetBSD+Arduino,2013-07-15 00:57:00,
2013-07-14 18:02:00,75.4,47.0,29.99,NE,45,4.5,9.0,36,0.00,,,0.00,NetBSD+Arduino,2013-07-15 01:02:00,
2013-07-14 18:08:00,75.1,47.8,29.99,NW,315,4.1,7.5,38,0.00,,,0.00,NetBSD+Arduino,2013-07-15 01:08:00,
2013-07-14 18:14:00,75.0,46.9,29.99,NW,315,2.2,6.0,36,0.00,,,0.00,NetBSD+Arduino,2013-07-15 01:14:00,
2013-07-14 18:19:00,74.8,48.2,29.99,ESE,103,3.4,7.5,39,0.00,,,0.00,NetBSD+Arduino,2013-07-15 01:19:00,
2013-07-14 18:25:00,74.7,48.1,29.98,ESE,104,2.2,4.5,39,0.00,,,0.00,NetBSD+Arduino,2013-07-15 01:25:00,
2013-07-14 18:30:00,74.8,48.9,29.99,West,270,1.2,3.0,40,0.00,,,0.00,NetBSD+Arduino,2013-07-15 01:30:00,
2013-07-14 18:35:00,74.6,48.7,29.99,ESE,103,0.0,6.0,40,0.00,,,0.00,NetBSD+Arduino,2013-07-15 01:35:00,
2013-07-14 18:40:00,74.5,50.0,29.98,SW,225,1.8,4.5,42,0.00,,,0.00,NetBSD+Arduino,2013-07-15 01:40:00,
2013-07-14 18:45:00,74.3,49.8,29.98,NW,315,0.0,3.0,42,0.00,,,0.00,NetBSD+Arduino,2013-07-15 01:45:00,
2013-07-14 18:51:00,73.9,50.1,29.98,SW,225,0.9,3.0,43,0.00,,,0.00,NetBSD+Arduino,2013-07-15 01:51:00,
2013-07-14 18:57:00,73.0,49.9,29.98,NW,315,0.3,4.5,44,0.00,,,0.00,NetBSD+Arduino,2013-07-15 01:57:00,
2013-07-14 19:02:00,72.6,50.2,29.98,NW,315,0.6,4.5,45,0.00,,,0.00,NetBSD+Arduino,2013-07-15 02:02:00,
2013-07-14 19:07:00,72.3,50.7,29.97,West,270,1.8,6.0,46,0.00,,,0.00,NetBSD+Arduino,2013-07-15 02:07:00,
2013-07-14 19:12:00,72.1,50.9,29.98,ESE,104,0.0,3.0,47,0.00,,,0.00,NetBSD+Arduino,2013-07-15 02:12:00,
2013-07-14 19:18:00,72.1,50.9,29.98,ESE,103,0.0,3.0,47,0.00,,,0.00,NetBSD+Arduino,2013-07-15 02:18:00,
2013-07-14 19:23:00,72.4,49.3,29.98,NE,45,2.6,6.0,44,0.00,,,0.00,NetBSD+Arduino,2013-07-15 02:23:00,
2013-07-14 19:28:00,72.4,48.7,29.99,NE,45,7.8,10.4,43,0.00,,,0.00,NetBSD+Arduino,2013-07-15 02:28:00,
2013-07-14 19:33:00,72.3,49.2,29.98,NW,315,0.0,9.0,44,0.00,,,0.00,NetBSD+Arduino,2013-07-15 02:33:00,
2013-07-14 19:39:00,72.1,48.8,29.98,SW,225,0.9,7.5,43,0.00,,,0.00,NetBSD+Arduino,2013-07-15 02:39:00,
2013-07-14 19:44:00,71.7,48.3,29.99,NW,315,1.5,10.4,43,0.00,,,0.00,NetBSD+Arduino,2013-07-15 02:44:00,
2013-07-14 19:49:00,71.4,48.4,29.99,West,270,1.5,7.5,44,0.00,,,0.00,NetBSD+Arduino,2013-07-15 02:49:00,
2013-07-14 19:54:00,71.0,48.6,29.99,West,270,0.6,6.0,45,0.00,,,0.00,NetBSD+Arduino,2013-07-15 02:54:00,
2013-07-14 19:59:00,70.7,48.6,29.99,NW,315,1.5,6.0,45,0.00,,,0.00,NetBSD+Arduino,2013-07-15 02:59:00,
2013-07-14 20:04:00,70.6,49.1,29.99,NE,45,2.1,6.0,46,0.00,,,0.00,NetBSD+Arduino,2013-07-15 03:04:00,
2013-07-14 20:09:00,70.3,48.8,29.99,NE,45,1.8,10.4,46,0.00,,,0.00,NetBSD+Arduino,2013-07-15 03:09:00,
2013-07-14 20:14:00,70.1,49.2,29.99,NW,315,1.8,7.5,47,0.00,,,0.00,NetBSD+Arduino,2013-07-15 03:14:00,
2013-07-14 20:19:00,70.0,48.5,29.99,NW,315,3.3,6.0,46,0.00,,,0.00,NetBSD+Arduino,2013-07-15 03:19:00,
2013-07-14 20:25:00,69.6,48.5,29.99,ESE,104,0.9,6.0,46,0.00,,,0.00,NetBSD+Arduino,2013-07-15 03:25:00,
2013-07-14 20:30:00,69.3,47.9,29.99,NW,315,3.0,9.0,46,0.00,,,0.00,NetBSD+Arduino,2013-07-15 03:30:00,
2013-07-14 20:35:00,69.2,48.1,29.99,NE,45,7.8,9.0,46,0.00,,,0.00,NetBSD+Arduino,2013-07-15 03:35:00,
2013-07-14 20:41:00,68.9,47.8,29.99,NW,315,4.5,10.4,46,0.00,,,0.00,NetBSD+Arduino,2013-07-15 03:41:00,
2013-07-14 20:46:00,68.8,48.0,29.99,NE,45,1.2,9.0,47,0.00,,,0.00,NetBSD+Arduino,2013-07-15 03:46:00,
2013-07-14 20:52:00,68.4,47.3,29.99,ESE,103,1.5,9.0,46,0.00,,,0.00,NetBSD+Arduino,2013-07-15 03:52:00,
2013-07-14 20:57:00,68.2,47.7,29.99,ESE,104,3.4,7.5,47,0.00,,,0.00,NetBSD+Arduino,2013-07-15 03:57:00,
2013-07-14 21:01:00,68.1,47.0,29.99,NE,45,5.4,9.0,46,0.00,,,0.00,NetBSD+Arduino,2013-07-15 04:01:00,
2013-07-14 21:03:00,68.1,47.3,29.99,West,270,0.3,10.4,47,0.00,,,0.00,NetBSD+Arduino,2013-07-15 04:03:00,
2013-07-14 21:06:00,68.0,46.9,29.99,East,90,2.7,10.4,46,0.00,,,0.00,NetBSD+Arduino,2013-07-15 04:06:00,
2013-07-14 21:07:00,67.8,47.3,29.99,ESE,103,1.5,9.0,47,0.00,,,0.00,NetBSD+Arduino,2013-07-15 04:07:00,
2013-07-14 21:08:00,67.9,47.1,29.99,ESE,103,0.3,9.0,47,0.00,,,0.00,NetBSD+Arduino,2013-07-15 04:08:00,
2013-07-14 21:13:00,67.5,46.5,29.99,East,90,2.4,11.9,46,0.00,,,0.00,NetBSD+Arduino,2013-07-15 04:13:00,
2013-07-14 21:18:00,67.2,46.2,30.00,NE,45,6.0,9.0,46,0.00,,,0.00,NetBSD+Arduino,2013-07-15 04:18:00,
2013-07-14 21:23:00,67.0,46.2,30.00,NW,315,3.0,10.4,47,0.00,,,0.00,NetBSD+Arduino,2013-07-15 04:23:00,
2013-07-14 21:28:00,66.7,46.2,30.00,ESE,105,2.7,7.5,47,0.00,,,0.00,NetBSD+Arduino,2013-07-15 04:28:00,
2013-07-14 21:34:00,66.3,45.3,30.00,NW,315,1.8,9.0,46,0.00,,,0.00,NetBSD+Arduino,2013-07-15 04:34:00,
2013-07-14 21:39:00,65.9,45.5,30.00,ESE,103,7.2,10.4,47,0.00,,,0.00,NetBSD+Arduino,2013-07-15 04:39:00,
2013-07-14 21:44:00,65.6,44.6,30.00,ESE,104,1.5,10.4,46,0.00,,,0.00,NetBSD+Arduino,2013-07-15 04:44:00,
2013-07-14 21:49:00,65.2,44.9,30.00,NW,315,3.7,10.4,47,0.00,,,0.00,NetBSD+Arduino,2013-07-15 04:49:00,
2013-07-14 21:54:00,64.9,45.1,30.00,NE,45,6.0,10.4,48,0.00,,,0.00,NetBSD+Arduino,2013-07-15 04:54:00,
2013-07-14 21:59:00,64.9,44.5,30.00,West,270,1.2,9.0,47,0.00,,,0.00,NetBSD+Arduino,2013-07-15 04:59:00,
2013-07-14 22:04:00,64.7,43.8,30.00,ESE,103,4.5,10.4,46,0.00,,,0.00,NetBSD+Arduino,2013-07-15 05:04:00,
2013-07-14 22:09:00,64.7,44.3,30.00,SW,225,3.0,13.4,47,0.00,,,0.00,NetBSD+Arduino,2013-07-15 05:09:00,
2013-07-14 22:14:00,64.6,44.2,30.00,South,180,4.5,10.4,47,0.00,,,0.00,NetBSD+Arduino,2013-07-15 05:14:00,
2013-07-14 22:19:00,64.4,44.9,30.00,East,90,1.2,13.4,49,0.00,,,0.00,NetBSD+Arduino,2013-07-15 05:19:00,
2013-07-14 22:24:00,64.2,45.5,30.00,NW,315,4.8,13.4,50,0.00,,,0.00,NetBSD+Arduino,2013-07-15 05:24:00,
2013-07-14 22:29:00,64.0,46.3,30.00,NW,315,5.7,11.9,52,0.00,,,0.00,NetBSD+Arduino,2013-07-15 05:29:00,
2013-07-14 22:34:00,63.6,46.9,30.00,North,0,4.1,10.4,54,0.00,,,0.00,NetBSD+Arduino,2013-07-15 05:34:00,
2013-07-14 22:40:00,63.1,47.4,30.00,NE,45,1.5,11.9,56,0.00,,,0.00,NetBSD+Arduino,2013-07-15 05:40:00,
2013-07-14 22:45:00,62.8,47.1,30.00,East,90,4.1,9.0,56,0.00,,,0.00,NetBSD+Arduino,2013-07-15 05:45:00,
2013-07-14 22:50:00,62.6,47.3,30.02,NE,45,4.8,11.9,57,0.00,,,0.00,NetBSD+Arduino,2013-07-15 05:50:00,
2013-07-14 22:55:00,62.3,47.1,30.01,ESE,103,5.4,9.0,57,0.00,,,0.00,NetBSD+Arduino,2013-07-15 05:55:00,
2013-07-14 23:00:00,62.1,47.0,30.01,West,270,1.2,9.0,57,0.00,,,0.00,NetBSD+Arduino,2013-07-15 06:00:00,
2013-07-14 23:05:00,61.8,46.8,30.01,ESE,103,4.8,7.5,57,0.00,,,0.00,NetBSD+Arduino,2013-07-15 06:05:00,
2013-07-14 23:10:00,61.8,47.0,30.02,NE,45,2.7,4.5,58,0.00,,,0.00,NetBSD+Arduino,2013-07-15 06:10:00,
2013-07-14 23:15:00,61.7,46.9,30.02,ESE,103,2.6,7.5,58,0.00,,,0.00,NetBSD+Arduino,2013-07-15 06:15:00,
2013-07-14 23:20:00,61.6,46.8,30.02,East,90,1.5,4.5,58,0.00,,,0.00,NetBSD+Arduino,2013-07-15 06:20:00,
2013-07-14 23:25:00,61.6,46.8,30.02,East,90,2.4,7.5,58,0.00,,,0.00,NetBSD+Arduino,2013-07-15 06:25:00,
2013-07-14 23:31:00,61.6,46.8,30.02,NW,315,0.0,3.0,58,0.00,,,0.00,NetBSD+Arduino,2013-07-15 06:31:00,
2013-07-14 23:36:00,61.3,47.2,30.02,NW,315,0.0,3.0,59,0.00,,,0.00,NetBSD+Arduino,2013-07-15 06:36:00,
2013-07-14 23:41:00,61.2,47.3,30.02,East,90,1.8,3.0,60,0.00,,,0.00,NetBSD+Arduino,2013-07-15 06:41:00,
2013-07-14 23:46:00,61.0,47.2,30.02,NE,45,0.9,1.5,60,0.00,,,0.00,NetBSD+Arduino,2013-07-15 06:46:00,
2013-07-14 23:51:00,60.8,47.3,30.02,South,180,0.0,4.5,61,0.00,,,0.00,NetBSD+Arduino,2013-07-15 06:51:00,
2013-07-14 23:56:00,60.6,47.3,30.02,East,90,0.0,3.0,61,0.00,,,0.00,NetBSD+Arduino,2013-07-15 06:56:00,